Time,TemperatureF,DewpointF,PressureIn,WindDirection,WindDirectionDegrees,WindSpeedMPH,WindSpeedGustMPH,Humidity,HourlyPrecipIn,Conditions,Clouds,dailyrainin,SoftwareType,DateUTC
2013-01-11 00:00:00,45.2,43.9,29.76,East,82,9.0,16.0,95,0.01,,SCT007,0.46,VWS V14.01,2013-01-11 06:00:00,
2013-01-11 00:03:00,45.2,44.1,29.76,SSE,163,8.0,16.0,96,0.01,,,0.00,VWS V14.01,2013-01-11 06:03:00,
2013-01-11 00:05:00,45.2,44.1,29.76,SSW,197,12.0,16.0,96,0.01,,SCT007,0.00,VWS V14.01,2013-01-11 06:05:00,
2013-01-11 00:08:00,45.2,44.1,29.75,South,177,7.0,16.0,96,0.01,,,0.00,VWS V14.01,2013-01-11 06:08:00,
2013-01-11 00:10:00,45.2,44.1,29.75,SSE,166,11.0,16.0,96,0.01,,SCT007,0.00,VWS V14.01,2013-01-11 06:10:00,
2013-01-11 00:13:00,45.2,44.1,29.76,SSE,167,8.0,11.0,96,0.01,,,0.00,VWS V14.01,2013-01-11 06:13:00,
2013-01-11 00:15:00,45.2,44.1,29.75,SSE,165,3.0,14.0,96,0.01,,SCT007,0.00,VWS V14.01,2013-01-11 06:15:00,
2013-01-11 00:18:00,45.3,44.2,29.74,SSW,194,12.0,14.0,96,0.01,,,0.00,VWS V14.01,2013-01-11 06:18:00,
2013-01-11 00:20:00,45.3,44.2,29.74,SW,231,13.0,16.0,96,0.01,,SCT007,0.00,VWS V14.01,2013-01-11 06:20:00,
2013-01-11 00:23:00,45.2,44.1,29.75,SSE,160,5.0,14.0,96,0.01,,,0.00,VWS V14.01,2013-01-11 06:23:00,
2013-01-11 00:25:00,45.2,44.1,29.74,SSE,158,7.0,14.0,96,0.01,,SCT007,0.00,VWS V14.01,2013-01-11 06:25:00,
2013-01-11 00:28:00,45.2,44.1,29.75,SSE,159,8.0,15.0,96,0.01,,,0.00,VWS V14.01,2013-01-11 06:28:00,
2013-01-11 00:30:00,45.2,44.1,29.75,South,191,9.0,15.0,96,0.01,,SCT007,0.00,VWS V14.01,2013-01-11 06:30:00,
2013-01-11 00:33:00,45.2,44.1,29.75,South,172,7.0,15.0,96,0.01,,,0.00,VWS V14.01,2013-01-11 06:33:00,
2013-01-11 00:35:00,45.2,44.1,29.75,SSE,159,5.0,15.0,96,0.01,,SCT007,0.00,VWS V14.01,2013-01-11 06:35:00,
2013-01-11 00:38:00,45.2,44.1,29.75,SSW,205,7.0,9.0,96,0.01,,,0.00,VWS V14.01,2013-01-11 06:38:00,
2013-01-11 00:40:00,45.1,44.0,29.75,ESE,118,11.0,16.0,96,0.01,,SCT007,0.00,VWS V14.01,2013-01-11 06:40:00,
2013-01-11 00:43:00,45.1,44.0,29.75,ESE,116,6.0,14.0,96,0.01,,,0.00,VWS V14.01,2013-01-11 06:43:00,
2013-01-11 00:45:00,45.1,44.0,29.75,SSE,155,9.0,14.0,96,0.01,,SCT007,0.00,VWS V14.01,2013-01-11 06:45:00,
2013-01-11 00:48:00,45.1,44.0,29.75,SSE,159,6.0,10.0,96,0.01,,,0.00,VWS V14.01,2013-01-11 06:48:00,
2013-01-11 00:50:00,45.1,44.0,29.75,SE,135,4.0,10.0,96,0.01,,SCT007,0.00,VWS V14.01,2013-01-11 06:50:00,
2013-01-11 00:53:00,45.1,44.0,29.75,SE,146,5.0,9.0,96,0.01,,,0.00,VWS V14.01,2013-01-11 06:53:00,
2013-01-11 00:55:00,45.1,44.0,29.75,SE,126,4.0,9.0,96,0.01,,SCT007,0.00,VWS V14.01,2013-01-11 06:55:00,
2013-01-11 00:58:00,45.1,44.0,29.74,SSE,156,6.0,13.0,96,0.01,,,0.00,VWS V14.01,2013-01-11 06:58:00,
2013-01-11 01:00:00,45.1,44.0,29.74,SSE,148,7.0,13.0,96,0.01,,SCT007,0.00,VWS V14.01,2013-01-11 07:00:00,
2013-01-11 01:03:00,45.2,44.1,29.74,SSE,162,9.0,16.0,96,0.00,,,0.00,VWS V14.01,2013-01-11 07:03:00,
2013-01-11 01:05:00,45.2,44.1,29.74,SSW,200,14.0,16.0,96,0.00,,SCT007,0.00,VWS V14.01,2013-01-11 07:05:00,
2013-01-11 01:08:00,45.2,44.1,29.73,South,191,6.0,15.0,96,0.00,,,0.00,VWS V14.01,2013-01-11 07:08:00,
2013-01-11 01:10:00,45.2,44.1,29.73,SW,218,11.0,15.0,96,0.00,,SCT007,0.00,VWS V14.01,2013-01-11 07:10:00,
2013-01-11 01:13:00,45.2,44.1,29.72,SSW,194,10.0,13.0,96,0.00,,,0.00,VWS V14.01,2013-01-11 07:13:00,
2013-01-11 01:15:00,45.3,44.2,29.72,SE,129,6.0,14.0,96,0.00,,SCT007,0.00,VWS V14.01,2013-01-11 07:15:00,
2013-01-11 01:18:00,45.3,44.2,29.72,SW,220,11.0,13.0,96,0.00,,,0.00,VWS V14.01,2013-01-11 07:18:00,
2013-01-11 01:20:00,45.3,44.2,29.72,SSE,153,4.0,13.0,96,0.00,,SCT007,0.00,VWS V14.01,2013-01-11 07:20:00,
2013-01-11 01:23:00,45.2,44.1,29.72,South,180,12.0,12.0,96,0.00,,,0.00,VWS V14.01,2013-01-11 07:23:00,
2013-01-11 01:25:00,45.3,44.2,29.72,SSE,165,9.0,13.0,96,0.00,,SCT007,0.00,VWS V14.01,2013-01-11 07:25:00,
2013-01-11 01:28:00,45.2,44.1,29.73,SSE,150,4.0,14.0,96,0.00,,,0.00,VWS V14.01,2013-01-11 07:28:00,
2013-01-11 01:30:00,45.3,44.2,29.73,SSE,150,7.0,19.0,96,0.00,,SCT007,0.00,VWS V14.01,2013-01-11 07:30:00,
2013-01-11 01:33:00,45.3,44.2,29.72,SSE,158,12.0,15.0,96,0.00,,,0.00,VWS V14.01,2013-01-11 07:33:00,
2013-01-11 01:35:00,45.3,44.2,29.73,SE,146,7.0,17.0,96,0.00,,SCT007,0.00,VWS V14.01,2013-01-11 07:35:00,
2013-01-11 01:38:00,45.3,44.2,29.73,SSW,194,4.0,11.0,96,0.00,,,0.00,VWS V14.01,2013-01-11 07:38:00,
2013-01-11 01:40:00,45.3,44.2,29.72,SSE,155,7.0,15.0,96,0.00,,SCT007,0.00,VWS V14.01,2013-01-11 07:40:00,
2013-01-11 01:43:00,45.3,44.2,29.72,WSW,255,8.0,17.0,96,0.00,,,0.00,VWS V14.01,2013-01-11 07:43:00,
2013-01-11 01:45:00,45.3,44.2,29.72,SSW,193,8.0,17.0,96,0.00,,SCT007,0.00,VWS V14.01,2013-01-11 07:45:00,
2013-01-11 01:48:00,45.3,44.2,29.72,South,172,10.0,18.0,96,0.00,,,0.00,VWS V14.01,2013-01-11 07:48:00,
2013-01-11 01:50:00,45.4,44.3,29.72,SSE,153,8.0,18.0,96,0.00,,SCT007,0.00,VWS V14.01,2013-01-11 07:50:00,
2013-01-11 01:53:00,45.4,44.3,29.72,SSE,160,7.0,16.0,96,0.00,,,0.00,VWS V14.01,2013-01-11 07:53:00,
2013-01-11 01:55:00,45.4,44.3,29.72,SE,142,6.0,16.0,96,0.00,,SCT007,0.00,VWS V14.01,2013-01-11 07:55:00,
2013-01-11 01:58:00,45.4,44.3,29.72,SSE,167,8.0,16.0,96,0.00,,,0.00,VWS V14.01,2013-01-11 07:58:00,
2013-01-11 02:00:00,45.4,44.3,29.72,SSE,155,7.0,16.0,96,0.00,,SCT007,0.00,VWS V14.01,2013-01-11 08:00:00,
2013-01-11 02:03:00,45.4,44.3,29.72,South,187,12.0,15.0,96,0.00,,,0.00,VWS V14.01,2013-01-11 08:03:00,
2013-01-11 02:05:00,45.5,44.4,29.72,South,187,13.0,15.0,96,0.00,,SCT007,0.00,VWS V14.01,2013-01-11 08:05:00,
2013-01-11 02:08:00,45.5,44.4,29.72,South,181,5.0,13.0,96,0.00,,,0.00,VWS V14.01,2013-01-11 08:08:00,
2013-01-11 02:10:00,45.5,44.4,29.72,South,172,13.0,13.0,96,0.00,,SCT007,0.00,VWS V14.01,2013-01-11 08:10:00,
2013-01-11 02:13:00,45.6,44.5,29.72,South,186,8.0,13.0,96,0.00,,,0.00,VWS V14.01,2013-01-11 08:13:00,
2013-01-11 02:15:00,45.6,44.5,29.71,SSE,166,5.0,13.0,96,0.00,,SCT007,0.00,VWS V14.01,2013-01-11 08:15:00,
2013-01-11 02:18:00,45.6,44.5,29.70,West,277,9.0,9.0,96,0.00,,,0.00,VWS V14.01,2013-01-11 08:18:00,
2013-01-11 02:20:00,45.6,44.5,29.70,ESE,122,6.0,10.0,96,0.00,,SCT007,0.00,VWS V14.01,2013-01-11 08:20:00,
2013-01-11 02:23:00,45.6,44.5,29.70,SSE,163,7.0,12.0,96,0.00,,,0.00,VWS V14.01,2013-01-11 08:23:00,
2013-01-11 02:25:00,45.6,44.5,29.69,SE,142,4.0,12.0,96,0.00,,SCT007,0.00,VWS V14.01,2013-01-11 08:25:00,
2013-01-11 02:27:00,45.6,44.5,29.69,SE,131,4.0,12.0,96,0.00,,,0.00,VWS V14.01,2013-01-11 08:27:00,
2013-01-11 02:30:00,45.6,44.5,29.69,SSE,148,6.0,13.0,96,0.00,,SCT007,0.00,VWS V14.01,2013-01-11 08:30:00,
2013-01-11 02:32:00,45.6,44.5,29.70,South,176,9.0,10.0,96,0.00,,,0.00,VWS V14.01,2013-01-11 08:32:00,
2013-01-11 02:35:00,45.6,44.5,29.69,SSE,163,7.0,13.0,96,0.00,,SCT007,0.00,VWS V14.01,2013-01-11 08:35:00,
2013-01-11 02:37:00,45.7,44.6,29.69,SSE,163,10.0,13.0,96,0.00,,,0.00,VWS V14.01,2013-01-11 08:37:00,
2013-01-11 02:40:00,45.7,44.6,29.69,WSW,238,6.0,13.0,96,0.00,,SCT007,0.00,VWS V14.01,2013-01-11 08:40:00,
2013-01-11 02:42:00,45.7,44.6,29.69,SSE,152,8.0,11.0,96,0.00,,,0.00,VWS V14.01,2013-01-11 08:42:00,
2013-01-11 02:45:00,45.7,44.6,29.69,South,186,4.0,12.0,96,0.00,,SCT007,0.00,VWS V14.01,2013-01-11 08:45:00,
2013-01-11 02:47:00,45.7,44.6,29.69,SSE,156,9.0,15.0,96,0.00,,,0.00,VWS V14.01,2013-01-11 08:47:00,
2013-01-11 02:50:00,45.6,44.2,29.68,SSE,167,6.0,15.0,95,0.00,,SCT007,0.00,VWS V14.01,2013-01-11 08:50:00,
2013-01-11 02:52:00,45.6,44.2,29.68,SSE,154,14.0,14.0,95,0.00,,,0.00,VWS V14.01,2013-01-11 08:52:00,
2013-01-11 02:55:00,45.6,44.2,29.68,SE,131,3.0,15.0,95,0.00,,SCT007,0.00,VWS V14.01,2013-01-11 08:55:00,
2013-01-11 02:57:00,45.7,44.3,29.69,SSE,159,4.0,16.0,95,0.00,,,0.00,VWS V14.01,2013-01-11 08:57:00,
2013-01-11 03:00:00,45.7,44.3,29.69,SE,125,9.0,16.0,95,0.00,,SCT007,0.00,VWS V14.01,2013-01-11 09:00:00,
2013-01-11 03:02:00,45.8,44.5,29.69,WSW,255,5.0,13.0,95,0.00,,,0.00,VWS V14.01,2013-01-11 09:02:00,
2013-01-11 03:05:00,45.8,44.5,29.68,SE,124,10.0,13.0,95,0.00,,SCT007,0.00,VWS V14.01,2013-01-11 09:05:00,
2013-01-11 03:07:00,45.9,44.5,29.68,SE,125,10.0,19.0,95,0.00,,,0.00,VWS V14.01,2013-01-11 09:07:00,
2013-01-11 03:10:00,45.9,44.5,29.67,ESE,114,4.0,19.0,95,0.00,,SCT007,0.00,VWS V14.01,2013-01-11 09:10:00,
2013-01-11 03:12:00,45.9,44.5,29.67,SE,135,7.0,18.0,95,0.00,,,0.00,VWS V14.01,2013-01-11 09:12:00,
2013-01-11 03:15:00,46.0,44.7,29.67,SW,231,13.0,18.0,95,0.00,,SCT007,0.00,VWS V14.01,2013-01-11 09:15:00,
2013-01-11 03:17:00,45.9,44.5,29.67,SW,233,5.0,15.0,95,0.00,,,0.00,VWS V14.01,2013-01-11 09:17:00,
2013-01-11 03:20:00,45.9,44.5,29.67,SE,141,9.0,18.0,95,0.00,,SCT007,0.00,VWS V14.01,2013-01-11 09:20:00,
2013-01-11 03:22:00,45.9,44.5,29.67,SSW,192,7.0,15.0,95,0.00,,,0.00,VWS V14.01,2013-01-11 09:22:00,
2013-01-11 03:25:00,45.9,44.5,29.67,SE,134,9.0,15.0,95,0.00,,SCT007,0.00,VWS V14.01,2013-01-11 09:25:00,
2013-01-11 03:27:00,45.9,44.5,29.66,South,172,10.0,14.0,95,0.00,,,0.00,VWS V14.01,2013-01-11 09:27:00,
2013-01-11 03:30:00,46.0,44.7,29.67,SE,141,15.0,15.0,95,0.00,,SCT007,0.00,VWS V14.01,2013-01-11 09:30:00,
2013-01-11 03:32:00,45.9,44.5,29.66,SE,138,9.0,15.0,95,0.00,,,0.00,VWS V14.01,2013-01-11 09:32:00,
2013-01-11 03:35:00,46.0,44.7,29.66,South,169,6.0,15.0,95,0.00,,SCT007,0.00,VWS V14.01,2013-01-11 09:35:00,
2013-01-11 03:37:00,46.0,44.7,29.66,South,179,8.0,14.0,95,0.00,,,0.00,VWS V14.01,2013-01-11 09:37:00,
2013-01-11 03:40:00,46.0,44.7,29.66,ESE,103,7.0,15.0,95,0.00,,SCT007,0.00,VWS V14.01,2013-01-11 09:40:00,
2013-01-11 03:42:00,46.0,44.7,29.66,ESE,116,4.0,14.0,95,0.00,,,0.00,VWS V14.01,2013-01-11 09:42:00,
2013-01-11 03:45:00,46.0,44.7,29.65,SSE,152,8.0,14.0,95,0.00,,SCT007,0.00,VWS V14.01,2013-01-11 09:45:00,
2013-01-11 03:47:00,45.9,44.5,29.65,South,179,9.0,10.0,95,0.00,,,0.00,VWS V14.01,2013-01-11 09:47:00,
2013-01-11 03:50:00,45.9,44.5,29.65,South,186,12.0,14.0,95,0.00,,SCT007,0.00,VWS V14.01,2013-01-11 09:50:00,
2013-01-11 03:52:00,45.9,44.5,29.66,South,169,10.0,15.0,95,0.00,,,0.00,VWS V14.01,2013-01-11 09:52:00,
2013-01-11 03:55:00,45.9,44.5,29.66,South,169,16.0,17.0,95,0.00,,SCT007,0.00,VWS V14.01,2013-01-11 09:55:00,
2013-01-11 03:57:00,45.9,44.5,29.67,SSW,200,12.0,16.0,95,0.00,,,0.00,VWS V14.01,2013-01-11 09:57:00,
2013-01-11 04:00:00,45.9,44.5,29.67,SSE,149,6.0,16.0,95,0.00,,SCT007,0.00,VWS V14.01,2013-01-11 10:00:00,
2013-01-11 04:02:00,45.9,44.5,29.67,SSE,152,7.0,13.0,95,0.00,,,0.00,VWS V14.01,2013-01-11 10:02:00,
2013-01-11 04:05:00,46.0,44.7,29.66,ESE,118,8.0,13.0,95,0.00,,SCT007,0.00,VWS V14.01,2013-01-11 10:05:00,
2013-01-11 04:07:00,45.9,44.3,29.66,SE,145,7.0,12.0,94,0.00,,,0.00,VWS V14.01,2013-01-11 10:07:00,
2013-01-11 04:10:00,45.9,44.3,29.65,ESE,123,6.0,13.0,94,0.00,,SCT007,0.00,VWS V14.01,2013-01-11 10:10:00,
2013-01-11 04:12:00,45.9,44.3,29.65,South,188,4.0,11.0,94,0.00,,,0.00,VWS V14.01,2013-01-11 10:12:00,
2013-01-11 04:15:00,45.8,44.2,29.65,South,174,7.0,11.0,94,0.00,,SCT007,0.00,VWS V14.01,2013-01-11 10:15:00,
2013-01-11 04:17:00,45.8,44.2,29.64,SSE,163,17.0,18.0,94,0.00,,,0.00,VWS V14.01,2013-01-11 10:17:00,
2013-01-11 04:20:00,45.8,44.2,29.64,SE,146,7.0,18.0,94,0.00,,SCT007,0.00,VWS V14.01,2013-01-11 10:20:00,
2013-01-11 04:22:00,45.8,44.2,29.64,SSE,165,6.0,12.0,94,0.00,,,0.00,VWS V14.01,2013-01-11 10:22:00,
2013-01-11 04:25:00,45.8,44.2,29.64,SSE,160,8.0,15.0,94,0.00,,SCT007,0.00,VWS V14.01,2013-01-11 10:25:00,
2013-01-11 04:27:00,45.8,44.2,29.64,ESE,120,9.0,11.0,94,0.00,,,0.00,VWS V14.01,2013-01-11 10:27:00,
2013-01-11 04:30:00,45.8,44.2,29.64,SE,124,8.0,13.0,94,0.00,,SCT007,0.00,VWS V14.01,2013-01-11 10:30:00,
2013-01-11 04:32:00,45.7,44.1,29.64,SE,126,5.0,13.0,94,0.00,,OVC007,0.00,VWS V14.01,2013-01-11 10:32:00,
2013-01-11 04:35:00,45.7,44.1,29.65,ESE,109,10.0,13.0,94,0.00,,SCT007,0.00,VWS V14.01,2013-01-11 10:35:00,
2013-01-11 04:37:00,45.7,44.1,29.64,SE,129,6.0,12.0,94,0.00,,OVC007,0.00,VWS V14.01,2013-01-11 10:37:00,
2013-01-11 04:40:00,45.7,44.1,29.64,SSW,197,7.0,12.0,94,0.00,,OVC250,0.00,VWS V14.01,2013-01-11 10:40:00,
2013-01-11 04:42:00,45.7,44.1,29.63,South,179,13.0,16.0,94,0.00,,OVC007,0.00,VWS V14.01,2013-01-11 10:42:00,
2013-01-11 04:45:00,45.6,44.0,29.63,ESE,118,6.0,16.0,94,0.00,,SCT007,0.00,VWS V14.01,2013-01-11 10:45:00,
2013-01-11 04:47:00,45.6,44.0,29.63,SE,126,9.0,21.0,94,0.00,,OVC007,0.00,VWS V14.01,2013-01-11 10:47:00,
2013-01-11 04:50:00,45.6,44.0,29.63,South,172,9.0,21.0,94,0.00,,SCT007,0.00,VWS V14.01,2013-01-11 10:50:00,
2013-01-11 04:52:00,45.6,44.0,29.63,SE,132,7.0,16.0,94,0.00,,SCT007,0.00,VWS V14.01,2013-01-11 10:52:00,
2013-01-11 04:55:00,45.6,44.0,29.63,SE,126,6.0,16.0,94,0.00,,SCT007,0.00,VWS V14.01,2013-01-11 10:55:00,
2013-01-11 04:57:00,45.6,44.0,29.63,South,173,8.0,17.0,94,0.00,,OVC007,0.00,VWS V14.01,2013-01-11 10:57:00,
2013-01-11 05:00:00,45.6,44.0,29.63,SE,128,8.0,18.0,94,0.00,,SCT007,0.00,VWS V14.01,2013-01-11 11:00:00,
2013-01-11 05:02:00,45.6,44.0,29.62,ESE,114,11.0,13.0,94,0.00,,SCT007,0.00,VWS V14.01,2013-01-11 11:02:00,
2013-01-11 05:05:00,45.6,44.0,29.63,SSE,159,6.0,14.0,94,0.00,,SCT007,0.00,VWS V14.01,2013-01-11 11:05:00,
2013-01-11 05:07:00,45.6,44.0,29.62,SSE,167,6.0,13.0,94,0.00,,SCT007,0.00,VWS V14.01,2013-01-11 11:07:00,
2013-01-11 05:10:00,45.6,44.0,29.62,ESE,105,7.0,14.0,94,0.00,,SCT007,0.00,VWS V14.01,2013-01-11 11:10:00,
2013-01-11 05:12:00,45.6,44.0,29.62,South,172,6.0,16.0,94,0.00,,SCT007,0.00,VWS V14.01,2013-01-11 11:12:00,
2013-01-11 05:15:00,45.6,44.0,29.62,SSE,154,7.0,16.0,94,0.00,,SCT007,0.00,VWS V14.01,2013-01-11 11:15:00,
2013-01-11 05:17:00,45.6,44.0,29.61,SE,141,8.0,12.0,94,0.00,,SCT007,0.00,VWS V14.01,2013-01-11 11:17:00,
2013-01-11 05:20:00,45.6,44.0,29.61,ESE,121,8.0,15.0,94,0.00,,SCT007,0.00,VWS V14.01,2013-01-11 11:20:00,
2013-01-11 05:22:00,45.7,44.1,29.60,SE,131,6.0,12.0,94,0.00,,SCT007,0.00,VWS V14.01,2013-01-11 11:22:00,
2013-01-11 05:25:00,45.7,44.1,29.60,SE,143,13.0,17.0,94,0.00,,SCT007,0.00,VWS V14.01,2013-01-11 11:25:00,
2013-01-11 05:27:00,45.8,43.9,29.61,NNW,338,7.0,15.0,93,0.00,,SCT007,0.00,VWS V14.01,2013-01-11 11:27:00,
2013-01-11 05:30:00,45.8,43.9,29.60,SE,132,7.0,15.0,93,0.00,,SCT007,0.00,VWS V14.01,2013-01-11 11:30:00,
2013-01-11 05:32:00,45.8,43.9,29.61,South,186,16.0,16.0,93,0.00,,SCT007,0.00,VWS V14.01,2013-01-11 11:32:00,
2013-01-11 05:35:00,45.8,43.9,29.60,South,169,8.0,17.0,93,0.00,,SCT007,0.00,VWS V14.01,2013-01-11 11:35:00,
2013-01-11 05:37:00,45.8,43.9,29.61,SE,126,8.0,13.0,93,0.00,,SCT007,0.00,VWS V14.01,2013-01-11 11:37:00,
2013-01-11 05:40:00,45.8,43.9,29.60,SE,131,9.0,13.0,93,0.00,,SCT007,0.00,VWS V14.01,2013-01-11 11:40:00,
2013-01-11 05:42:00,45.8,43.9,29.60,ESE,122,9.0,18.0,93,0.00,,SCT007,0.00,VWS V14.01,2013-01-11 11:42:00,
2013-01-11 05:45:00,45.8,43.9,29.60,SE,142,6.0,18.0,93,0.00,,SCT007,0.00,VWS V14.01,2013-01-11 11:45:00,
2013-01-11 05:47:00,45.8,43.9,29.60,ESE,110,6.0,13.0,93,0.00,,SCT007,0.00,VWS V14.01,2013-01-11 11:47:00,
2013-01-11 05:50:00,45.8,43.9,29.60,SE,142,7.0,15.0,93,0.00,,SCT007,0.00,VWS V14.01,2013-01-11 11:50:00,
2013-01-11 05:52:00,45.8,43.9,29.60,NE,51,14.0,18.0,93,0.00,,SCT007,0.00,VWS V14.01,2013-01-11 11:52:00,
2013-01-11 05:55:00,45.8,43.9,29.60,South,191,11.0,18.0,93,0.00,,SCT007,0.00,VWS V14.01,2013-01-11 11:55:00,
2013-01-11 05:57:00,45.9,44.0,29.60,SE,142,6.0,18.0,93,0.00,,SCT007,0.00,VWS V14.01,2013-01-11 11:57:00,
2013-01-11 06:00:00,45.9,44.0,29.60,South,180,9.0,18.0,93,0.00,,SCT007,0.00,VWS V14.01,2013-01-11 12:00:00,
2013-01-11 06:02:00,45.9,44.0,29.61,South,173,9.0,16.0,93,0.00,,SCT007,0.00,VWS V14.01,2013-01-11 12:02:00,
2013-01-11 06:05:00,45.9,44.0,29.60,SSE,162,9.0,16.0,93,0.00,,SCT007,0.00,VWS V14.01,2013-01-11 12:05:00,
2013-01-11 06:07:00,45.9,44.0,29.60,South,184,17.0,17.0,93,0.00,,SCT007,0.00,VWS V14.01,2013-01-11 12:07:00,
2013-01-11 06:10:00,45.9,44.0,29.60,SE,134,9.0,18.0,93,0.00,,SCT007,0.00,VWS V14.01,2013-01-11 12:10:00,
2013-01-11 06:12:00,45.9,44.0,29.60,SSE,166,11.0,15.0,93,0.00,,SCT007,0.00,VWS V14.01,2013-01-11 12:12:00,
2013-01-11 06:15:00,45.9,44.0,29.60,SW,232,9.0,15.0,93,0.00,,OVC250,0.00,VWS V14.01,2013-01-11 12:15:00,
2013-01-11 06:17:00,45.9,44.0,29.60,SE,125,8.0,18.0,93,0.00,,SCT007,0.00,VWS V14.01,2013-01-11 12:17:00,
2013-01-11 06:20:00,45.9,44.0,29.61,SSE,163,9.0,9.0,93,0.00,,OVC250,0.00,VWS V14.01,2013-01-11 12:20:00,
2013-01-11 06:22:00,45.9,44.0,29.61,SE,143,14.0,14.0,93,0.00,,SCT007,0.00,VWS V14.01,2013-01-11 12:22:00,
2013-01-11 06:25:00,45.9,43.7,29.62,SSW,195,15.0,15.0,92,0.00,,OVC250,0.00,VWS V14.01,2013-01-11 12:25:00,
2013-01-11 06:27:00,45.9,43.7,29.62,SE,145,8.0,15.0,92,0.00,,SCT007,0.00,VWS V14.01,2013-01-11 12:27:00,
2013-01-11 06:30:00,45.9,43.7,29.62,South,179,5.0,15.0,92,0.00,,OVC250,0.00,VWS V14.01,2013-01-11 12:30:00,
2013-01-11 06:32:00,45.9,43.7,29.62,SSE,156,6.0,12.0,92,0.00,,BKN120,0.00,VWS V14.01,2013-01-11 12:32:00,
2013-01-11 06:35:00,45.9,43.7,29.62,SE,143,8.0,19.0,92,0.00,,OVC250,0.00,VWS V14.01,2013-01-11 12:35:00,
2013-01-11 06:37:00,45.8,43.6,29.61,South,187,8.0,13.0,92,0.00,,BKN120,0.00,VWS V14.01,2013-01-11 12:37:00,
2013-01-11 06:40:00,45.8,43.6,29.61,SSE,159,12.0,19.0,92,0.00,,OVC250,0.00,VWS V14.01,2013-01-11 12:40:00,
2013-01-11 06:42:00,45.7,43.5,29.61,SSE,153,7.0,13.0,92,0.00,,BKN120,0.00,VWS V14.01,2013-01-11 12:42:00,
2013-01-11 06:45:00,45.7,43.5,29.61,SSE,166,10.0,13.0,92,0.00,,OVC250,0.00,VWS V14.01,2013-01-11 12:45:00,
2013-01-11 06:47:00,45.7,43.5,29.62,SSE,150,10.0,20.0,92,0.00,,BKN120,0.00,VWS V14.01,2013-01-11 12:47:00,
2013-01-11 06:50:00,45.7,43.5,29.62,SSE,165,8.0,20.0,92,0.00,,OVC250,0.00,VWS V14.01,2013-01-11 12:50:00,
2013-01-11 06:52:00,45.6,43.4,29.61,ESE,104,6.0,11.0,92,0.00,,BKN120,0.00,VWS V14.01,2013-01-11 12:52:00,
2013-01-11 06:55:00,45.6,43.4,29.61,SE,134,9.0,18.0,92,0.00,,OVC250,0.00,VWS V14.01,2013-01-11 12:55:00,
2013-01-11 06:57:00,45.6,43.4,29.61,SSE,152,10.0,16.0,92,0.00,,BKN120,0.00,VWS V14.01,2013-01-11 12:57:00,
2013-01-11 07:00:00,45.7,43.5,29.61,SE,141,6.0,17.0,92,0.00,,OVC250,0.00,VWS V14.01,2013-01-11 13:00:00,
2013-01-11 07:02:00,45.6,43.4,29.61,SSE,149,5.0,13.0,92,0.00,,BKN120,0.00,VWS V14.01,2013-01-11 13:02:00,
2013-01-11 07:05:00,45.6,43.4,29.61,South,174,8.0,13.0,92,0.00,,OVC250,0.00,VWS V14.01,2013-01-11 13:05:00,
2013-01-11 07:07:00,45.5,43.3,29.61,South,181,5.0,12.0,92,0.00,,BKN120,0.00,VWS V14.01,2013-01-11 13:07:00,
2013-01-11 07:10:00,45.5,43.3,29.61,SSE,156,13.0,13.0,92,0.00,,OVC250,0.00,VWS V14.01,2013-01-11 13:10:00,
2013-01-11 07:12:00,45.4,43.2,29.61,SSE,153,10.0,16.0,92,0.00,,BKN120,0.00,VWS V14.01,2013-01-11 13:12:00,
2013-01-11 07:15:00,45.5,43.3,29.61,SE,131,6.0,16.0,92,0.00,,OVC250,0.00,VWS V14.01,2013-01-11 13:15:00,
2013-01-11 07:17:00,45.5,43.3,29.62,South,169,7.0,14.0,92,0.00,,BKN120,0.00,VWS V14.01,2013-01-11 13:17:00,
2013-01-11 07:20:00,45.5,43.3,29.62,South,181,12.0,15.0,92,0.00,,OVC250,0.00,VWS V14.01,2013-01-11 13:20:00,
2013-01-11 07:22:00,45.5,43.3,29.62,SSE,152,6.0,14.0,92,0.00,,BKN120,0.00,VWS V14.01,2013-01-11 13:22:00,
2013-01-11 07:25:00,45.6,43.4,29.61,South,190,7.0,14.0,92,0.00,,OVC250,0.00,VWS V14.01,2013-01-11 13:25:00,
2013-01-11 07:27:00,45.6,43.4,29.62,SSE,153,8.0,12.0,92,0.00,,BKN120,0.00,VWS V14.01,2013-01-11 13:27:00,
2013-01-11 07:30:00,45.8,43.3,29.62,SE,129,7.0,13.0,91,0.00,,OVC250,0.00,VWS V14.01,2013-01-11 13:30:00,
2013-01-11 07:32:00,45.8,43.3,29.62,South,191,6.0,14.0,91,0.00,,BKN120,0.00,VWS V14.01,2013-01-11 13:32:00,
2013-01-11 07:35:00,45.8,43.3,29.62,South,170,8.0,14.0,91,0.00,,OVC250,0.00,VWS V14.01,2013-01-11 13:35:00,
2013-01-11 07:37:00,45.8,43.3,29.63,SSE,155,13.0,16.0,91,0.00,,BKN120,0.00,VWS V14.01,2013-01-11 13:37:00,
2013-01-11 07:40:00,45.9,43.4,29.62,SE,145,11.0,17.0,91,0.00,,OVC250,0.00,VWS V14.01,2013-01-11 13:40:00,
2013-01-11 07:42:00,46.0,43.5,29.62,South,172,7.0,16.0,91,0.00,,BKN120,0.00,VWS V14.01,2013-01-11 13:42:00,
2013-01-11 07:45:00,46.0,43.5,29.63,SSE,152,10.0,16.0,91,0.00,,OVC250,0.00,VWS V14.01,2013-01-11 13:45:00,
2013-01-11 07:47:00,46.0,43.5,29.63,SSE,156,12.0,15.0,91,0.00,,BKN120,0.00,VWS V14.01,2013-01-11 13:47:00,
2013-01-11 07:50:00,46.0,43.5,29.63,SW,231,11.0,20.0,91,0.00,,OVC250,0.00,VWS V14.01,2013-01-11 13:50:00,
2013-01-11 07:52:00,46.1,43.6,29.63,SSE,150,17.0,17.0,91,0.00,,BKN120,0.00,VWS V14.01,2013-01-11 13:52:00,
2013-01-11 07:55:00,46.2,43.4,29.63,SSE,159,7.0,17.0,90,0.00,,OVC250,0.00,VWS V14.01,2013-01-11 13:55:00,
2013-01-11 07:57:00,46.2,43.4,29.63,SE,132,8.0,14.0,90,0.00,,BKN120,0.00,VWS V14.01,2013-01-11 13:57:00,
2013-01-11 08:00:00,46.2,43.4,29.63,South,177,9.0,14.0,90,0.00,,OVC250,0.00,VWS V14.01,2013-01-11 14:00:00,
2013-01-11 08:02:00,46.2,43.4,29.63,SSE,166,14.0,14.0,90,0.00,,BKN120,0.00,VWS V14.01,2013-01-11 14:02:00,
2013-01-11 08:05:00,46.3,43.5,29.63,SSW,194,7.0,19.0,90,0.00,,OVC250,0.00,VWS V14.01,2013-01-11 14:05:00,
2013-01-11 08:07:00,46.3,43.5,29.63,SSE,158,12.0,18.0,90,0.00,,BKN120,0.00,VWS V14.01,2013-01-11 14:07:00,
2013-01-11 08:10:00,46.4,43.6,29.63,SE,139,10.0,18.0,90,0.00,,OVC250,0.00,VWS V14.01,2013-01-11 14:10:00,
2013-01-11 08:12:00,46.4,43.6,29.64,SSW,193,7.0,13.0,90,0.00,,BKN120,0.00,VWS V14.01,2013-01-11 14:12:00,
2013-01-11 08:15:00,46.4,43.6,29.63,SE,135,9.0,17.0,90,0.00,,OVC250,0.00,VWS V14.01,2013-01-11 14:15:00,
2013-01-11 08:17:00,46.4,43.6,29.63,SW,219,9.0,18.0,90,0.00,,BKN120,0.00,VWS V14.01,2013-01-11 14:17:00,
2013-01-11 08:20:00,46.5,43.7,29.63,SE,145,8.0,18.0,90,0.00,,OVC250,0.00,VWS V14.01,2013-01-11 14:20:00,
2013-01-11 08:22:00,46.5,43.7,29.63,South,188,11.0,17.0,90,0.00,,BKN120,0.00,VWS V14.01,2013-01-11 14:22:00,
2013-01-11 08:25:00,46.6,43.8,29.63,SE,131,8.0,18.0,90,0.00,,OVC250,0.00,VWS V14.01,2013-01-11 14:25:00,
2013-01-11 08:27:00,46.6,43.5,29.64,SSW,195,11.0,14.0,89,0.00,,BKN120,0.00,VWS V14.01,2013-01-11 14:27:00,
2013-01-11 08:30:00,46.7,43.6,29.64,SE,125,6.0,16.0,89,0.00,,OVC250,0.00,VWS V14.01,2013-01-11 14:30:00,
2013-01-11 08:32:00,46.7,43.6,29.64,WSW,244,12.0,18.0,89,0.00,,BKN120,0.00,VWS V14.01,2013-01-11 14:32:00,
2013-01-11 08:35:00,46.8,43.7,29.64,South,174,13.0,20.0,89,0.00,,OVC250,0.00,VWS V14.01,2013-01-11 14:35:00,
2013-01-11 08:37:00,46.9,43.8,29.64,WNW,302,6.0,17.0,89,0.00,,BKN150,0.00,VWS V14.01,2013-01-11 14:37:00,
2013-01-11 08:40:00,46.9,43.8,29.64,SE,141,10.0,17.0,89,0.00,,OVC250,0.00,VWS V14.01,2013-01-11 14:40:00,
2013-01-11 08:42:00,47.0,43.9,29.64,SSW,199,9.0,12.0,89,0.00,,BKN150,0.00,VWS V14.01,2013-01-11 14:42:00,
2013-01-11 08:45:00,47.0,43.9,29.65,ESE,123,10.0,16.0,89,0.00,,OVC250,0.00,VWS V14.01,2013-01-11 14:45:00,
2013-01-11 08:47:00,47.1,44.0,29.65,SSE,153,12.0,17.0,89,0.00,,BKN150,0.00,VWS V14.01,2013-01-11 14:47:00,
2013-01-11 08:50:00,47.2,43.8,29.65,SSE,159,8.0,17.0,88,0.00,,OVC250,0.00,VWS V14.01,2013-01-11 14:50:00,
2013-01-11 08:52:00,47.2,43.8,29.65,SSE,150,9.0,11.0,88,0.00,,BKN150,0.00,VWS V14.01,2013-01-11 14:52:00,
2013-01-11 08:55:00,47.2,43.8,29.65,WNW,292,5.0,15.0,88,0.00,,OVC250,0.00,VWS V14.01,2013-01-11 14:55:00,
2013-01-11 08:57:00,47.2,43.8,29.64,SE,145,8.0,20.0,88,0.00,,BKN150,0.00,VWS V14.01,2013-01-11 14:57:00,
2013-01-11 09:00:00,47.3,43.9,29.65,SE,145,7.0,20.0,88,0.00,,OVC250,0.00,VWS V14.01,2013-01-11 15:00:00,
2013-01-11 09:02:00,47.3,43.9,29.64,SSE,153,8.0,13.0,88,0.00,,BKN150,0.00,VWS V14.01,2013-01-11 15:02:00,
2013-01-11 09:07:00,47.4,44.0,29.64,ESE,118,6.0,13.0,88,0.00,,BKN150,0.00,VWS V14.01,2013-01-11 15:07:00,
2013-01-11 09:10:00,47.4,44.0,29.64,South,177,9.0,13.0,88,0.00,,OVC250,0.00,VWS V14.01,2013-01-11 15:10:00,
2013-01-11 09:12:00,47.4,44.0,29.64,SE,142,8.0,14.0,88,0.00,,BKN150,0.00,VWS V14.01,2013-01-11 15:12:00,
2013-01-11 09:15:00,47.4,44.0,29.64,SE,135,7.0,16.0,88,0.00,,OVC250,0.00,VWS V14.01,2013-01-11 15:15:00,
2013-01-11 09:17:00,47.5,44.1,29.64,SSW,208,6.0,15.0,88,0.00,,BKN150,0.00,VWS V14.01,2013-01-11 15:17:00,
2013-01-11 09:20:00,47.5,43.8,29.65,SSE,159,7.0,15.0,87,0.00,,OVC250,0.00,VWS V14.01,2013-01-11 15:20:00,
2013-01-11 09:22:00,47.6,43.9,29.64,South,184,10.0,18.0,87,0.00,,BKN150,0.00,VWS V14.01,2013-01-11 15:22:00,
2013-01-11 09:25:00,47.6,43.9,29.64,South,190,9.0,18.0,87,0.00,,OVC250,0.00,VWS V14.01,2013-01-11 15:25:00,
2013-01-11 09:26:00,47.6,43.9,29.64,SSE,150,4.0,11.0,87,0.00,,BKN150,0.00,VWS V14.01,2013-01-11 15:26:00,
2013-01-11 09:30:00,47.6,43.9,29.63,South,185,14.0,14.0,87,0.00,,OVC250,0.00,VWS V14.01,2013-01-11 15:30:00,
2013-01-11 09:31:00,47.7,44.0,29.63,South,190,14.0,16.0,87,0.00,,BKN150,0.00,VWS V14.01,2013-01-11 15:31:00,
2013-01-11 09:35:00,47.7,44.0,29.63,SSE,150,7.0,16.0,87,0.00,,OVC250,0.00,VWS V14.01,2013-01-11 15:35:00,
2013-01-11 09:36:00,47.8,44.1,29.63,ESE,122,6.0,11.0,87,0.00,,OVC200,0.00,VWS V14.01,2013-01-11 15:36:00,
2013-01-11 09:40:00,47.8,44.1,29.63,SSW,203,11.0,16.0,87,0.00,,OVC250,0.00,VWS V14.01,2013-01-11 15:40:00,
2013-01-11 09:41:00,47.8,44.1,29.63,ESE,108,5.0,11.0,87,0.00,,OVC200,0.00,VWS V14.01,2013-01-11 15:41:00,
2013-01-11 09:45:00,47.9,44.2,29.63,SE,124,6.0,18.0,87,0.00,,OVC250,0.00,VWS V14.01,2013-01-11 15:45:00,
2013-01-11 09:46:00,48.0,44.3,29.63,SSE,150,9.0,14.0,87,0.00,,OVC200,0.00,VWS V14.01,2013-01-11 15:46:00,
2013-01-11 09:50:00,48.3,44.6,29.63,SSE,159,9.0,18.0,87,0.00,,OVC250,0.00,VWS V14.01,2013-01-11 15:50:00,
2013-01-11 09:51:00,48.5,44.5,29.64,ESE,117,5.0,11.0,86,0.00,,OVC200,0.00,VWS V14.01,2013-01-11 15:51:00,
2013-01-11 09:55:00,48.9,44.6,29.64,South,172,9.0,17.0,85,0.00,,OVC250,0.00,VWS V14.01,2013-01-11 15:55:00,
2013-01-11 09:56:00,49.2,45.2,29.64,SSE,149,6.0,10.0,86,0.00,,OVC200,0.00,VWS V14.01,2013-01-11 15:56:00,
2013-01-11 10:00:00,49.6,45.3,29.64,South,186,13.0,16.0,85,0.00,,OVC250,0.00,VWS V14.01,2013-01-11 16:00:00,
2013-01-11 10:01:00,49.7,45.1,29.64,South,180,10.0,18.0,84,0.00,,OVC200,0.00,VWS V14.01,2013-01-11 16:01:00,
2013-01-11 10:05:00,49.8,45.2,29.63,East,85,7.0,18.0,84,0.00,,OVC250,0.00,VWS V14.01,2013-01-11 16:05:00,
2013-01-11 10:06:00,49.8,45.2,29.63,SE,138,7.0,12.0,84,0.00,,OVC200,0.00,VWS V14.01,2013-01-11 16:06:00,
2013-01-11 10:10:00,50.0,45.0,29.63,South,177,8.0,12.0,83,0.00,,OVC250,0.00,VWS V14.01,2013-01-11 16:10:00,
2013-01-11 10:11:00,50.1,45.2,29.63,SSE,165,10.0,16.0,83,0.00,,OVC200,0.00,VWS V14.01,2013-01-11 16:11:00,
2013-01-11 10:15:00,50.2,45.2,29.63,SE,125,8.0,16.0,83,0.00,,OVC250,0.00,VWS V14.01,2013-01-11 16:15:00,
2013-01-11 10:16:00,50.3,45.3,29.63,SSE,158,8.0,13.0,83,0.00,,OVC200,0.00,VWS V14.01,2013-01-11 16:16:00,
2013-01-11 10:20:00,50.3,45.0,29.63,SSW,196,11.0,13.0,82,0.00,,OVC250,0.00,VWS V14.01,2013-01-11 16:20:00,
2013-01-11 10:21:00,50.3,45.0,29.63,SE,130,8.0,12.0,82,0.00,,OVC200,0.00,VWS V14.01,2013-01-11 16:21:00,
2013-01-11 10:25:00,50.3,45.0,29.63,SE,133,7.0,15.0,82,0.00,,OVC250,0.00,VWS V14.01,2013-01-11 16:25:00,
2013-01-11 10:26:00,50.3,45.0,29.63,SSE,150,14.0,26.0,82,0.00,,OVC200,0.00,VWS V14.01,2013-01-11 16:26:00,
2013-01-11 10:30:00,50.5,45.2,29.63,SSE,149,6.0,26.0,82,0.00,,OVC250,0.00,VWS V14.01,2013-01-11 16:30:00,
2013-01-11 10:31:00,50.6,45.3,29.62,SE,128,8.0,14.0,82,0.00,,OVC200,0.00,VWS V14.01,2013-01-11 16:31:00,
2013-01-11 10:35:00,50.7,45.1,29.62,WSW,238,8.0,21.0,81,0.00,,OVC250,0.00,VWS V14.01,2013-01-11 16:35:00,
2013-01-11 10:36:00,50.8,45.2,29.63,ESE,113,6.0,11.0,81,0.00,,BKN250,0.00,VWS V14.01,2013-01-11 16:36:00,
2013-01-11 10:40:00,50.9,45.3,29.62,WNW,290,8.0,15.0,81,0.00,,OVC250,0.00,VWS V14.01,2013-01-11 16:40:00,
2013-01-11 10:41:00,50.9,45.3,29.62,SE,145,13.0,20.0,81,0.00,,BKN250,0.00,VWS V14.01,2013-01-11 16:41:00,
2013-01-11 10:45:00,51.0,45.4,29.62,SSE,162,7.0,20.0,81,0.00,,OVC250,0.00,VWS V14.01,2013-01-11 16:45:00,
2013-01-11 10:46:00,51.0,45.4,29.62,SSW,193,17.0,22.0,81,0.00,,BKN250,0.00,VWS V14.01,2013-01-11 16:46:00,
2013-01-11 10:50:00,51.1,45.5,29.61,SE,132,10.0,22.0,81,0.00,,OVC250,0.00,VWS V14.01,2013-01-11 16:50:00,
2013-01-11 10:51:00,51.1,45.5,29.61,SSE,150,5.0,16.0,81,0.00,,BKN250,0.00,VWS V14.01,2013-01-11 16:51:00,
2013-01-11 10:55:00,51.3,45.3,29.61,SE,134,6.0,16.0,80,0.00,,OVC250,0.00,VWS V14.01,2013-01-11 16:55:00,
2013-01-11 10:56:00,51.3,45.3,29.61,SSE,152,13.0,13.0,80,0.00,,BKN250,0.00,VWS V14.01,2013-01-11 16:56:00,
2013-01-11 11:00:00,51.5,45.2,29.61,South,176,12.0,22.0,79,0.00,,OVC250,0.00,VWS V14.01,2013-01-11 17:00:00,
2013-01-11 11:01:00,51.6,45.3,29.61,SSE,153,7.0,13.0,79,0.00,,BKN250,0.00,VWS V14.01,2013-01-11 17:01:00,
2013-01-11 11:05:00,51.9,45.6,29.61,SE,146,5.0,18.0,79,0.00,,OVC250,0.00,VWS V14.01,2013-01-11 17:05:00,
2013-01-11 11:06:00,52.0,45.7,29.61,SSE,149,19.0,25.0,79,0.00,,BKN250,0.00,VWS V14.01,2013-01-11 17:06:00,
2013-01-11 11:10:00,52.3,45.7,29.61,SSE,159,8.0,25.0,78,0.00,,OVC250,0.00,VWS V14.01,2013-01-11 17:10:00,
2013-01-11 11:11:00,52.4,45.8,29.61,SSE,148,11.0,12.0,78,0.00,,BKN250,0.00,VWS V14.01,2013-01-11 17:11:00,
2013-01-11 11:15:00,52.7,45.7,29.61,SSE,162,15.0,18.0,77,0.00,,OVC250,0.00,VWS V14.01,2013-01-11 17:15:00,
2013-01-11 11:16:00,52.9,45.9,29.60,SSE,167,16.0,18.0,77,0.00,,BKN250,0.00,VWS V14.01,2013-01-11 17:16:00,
2013-01-11 11:20:00,53.3,45.6,29.60,SSE,147,7.0,20.0,75,0.00,,OVC250,0.00,VWS V14.01,2013-01-11 17:20:00,
2013-01-11 11:21:00,53.5,45.4,29.60,South,188,17.0,24.0,74,0.00,,BKN250,0.00,VWS V14.01,2013-01-11 17:21:00,
2013-01-11 11:25:00,54.0,45.9,29.60,SSE,148,13.0,28.0,74,0.00,,OVC250,0.00,VWS V14.01,2013-01-11 17:25:00,
2013-01-11 11:26:00,54.1,45.7,29.59,SSE,159,7.0,17.0,73,0.00,,BKN250,0.00,VWS V14.01,2013-01-11 17:26:00,
2013-01-11 11:30:00,54.2,45.4,29.59,SSW,197,15.0,26.0,72,0.00,,OVC250,0.00,VWS V14.01,2013-01-11 17:30:00,
2013-01-11 11:31:00,54.2,45.4,29.59,South,177,17.0,21.0,72,0.00,,BKN250,0.00,VWS V14.01,2013-01-11 17:31:00,
2013-01-11 11:35:00,54.1,45.3,29.59,SSW,203,14.0,25.0,72,0.00,,OVC250,0.00,VWS V14.01,2013-01-11 17:35:00,
2013-01-11 11:36:00,54.0,45.2,29.59,South,172,12.0,22.0,72,0.00,,OVC250,0.00,VWS V14.01,2013-01-11 17:36:00,
2013-01-11 11:40:00,54.0,45.5,29.59,SSE,166,8.0,22.0,73,0.00,,OVC250,0.00,VWS V14.01,2013-01-11 17:40:00,
2013-01-11 11:41:00,54.1,45.7,29.58,SSE,162,11.0,14.0,73,0.00,,OVC250,0.00,VWS V14.01,2013-01-11 17:41:00,
2013-01-11 11:45:00,54.2,46.1,29.58,SSE,148,6.0,17.0,74,0.00,,OVC250,0.00,VWS V14.01,2013-01-11 17:45:00,
2013-01-11 11:46:00,54.2,45.8,29.58,SSE,153,8.0,17.0,73,0.00,,OVC250,0.00,VWS V14.01,2013-01-11 17:46:00,
2013-01-11 11:50:00,54.1,45.7,29.58,South,186,17.0,21.0,73,0.00,,OVC250,0.00,VWS V14.01,2013-01-11 17:50:00,
2013-01-11 11:51:00,54.0,45.5,29.58,South,170,13.0,24.0,73,0.00,,OVC250,0.00,VWS V14.01,2013-01-11 17:51:00,
2013-01-11 11:55:00,53.9,45.8,29.58,South,177,17.0,24.0,74,0.00,,OVC250,0.00,VWS V14.01,2013-01-11 17:55:00,
2013-01-11 11:56:00,53.9,45.8,29.57,SSE,166,11.0,18.0,74,0.00,,OVC250,0.00,VWS V14.01,2013-01-11 17:56:00,
2013-01-11 12:00:00,53.8,45.7,29.58,SSE,164,15.0,21.0,74,0.00,,OVC250,0.00,VWS V14.01,2013-01-11 18:00:00,
2013-01-11 12:01:00,53.9,45.8,29.57,South,172,10.0,22.0,74,0.00,,OVC250,0.00,VWS V14.01,2013-01-11 18:01:00,
2013-01-11 12:05:00,53.9,46.2,29.57,SSE,155,10.0,22.0,75,0.00,,OVC250,0.00,VWS V14.01,2013-01-11 18:05:00,
2013-01-11 12:06:00,53.8,46.1,29.56,SE,141,9.0,12.0,75,0.00,,OVC250,0.00,VWS V14.01,2013-01-11 18:06:00,
2013-01-11 12:10:00,53.8,46.1,29.56,ESE,123,8.0,15.0,75,0.00,,OVC250,0.00,VWS V14.01,2013-01-11 18:10:00,
2013-01-11 12:11:00,53.8,46.1,29.57,East,85,11.0,12.0,75,0.00,,OVC250,0.00,VWS V14.01,2013-01-11 18:11:00,
2013-01-11 12:15:00,53.9,45.8,29.57,SSE,168,9.0,24.0,74,0.00,,OVC250,0.00,VWS V14.01,2013-01-11 18:15:00,
2013-01-11 12:16:00,53.9,46.2,29.57,SE,134,10.0,10.0,75,0.00,,OVC250,0.00,VWS V14.01,2013-01-11 18:16:00,
2013-01-11 12:20:00,54.1,46.0,29.56,SSE,155,6.0,20.0,74,0.00,,OVC250,0.00,VWS V14.01,2013-01-11 18:20:00,
2013-01-11 12:21:00,54.1,46.0,29.56,ENE,73,6.0,18.0,74,0.00,,OVC250,0.00,VWS V14.01,2013-01-11 18:21:00,
2013-01-11 12:25:00,54.1,46.0,29.56,East,80,10.0,19.0,74,0.00,,OVC250,0.00,VWS V14.01,2013-01-11 18:25:00,
2013-01-11 12:26:00,54.1,46.0,29.56,NE,46,10.0,16.0,74,0.00,,OVC250,0.00,VWS V14.01,2013-01-11 18:26:00,
2013-01-11 12:30:00,54.1,46.0,29.56,SW,228,15.0,20.0,74,0.00,,OVC250,0.00,VWS V14.01,2013-01-11 18:30:00,
2013-01-11 12:31:00,54.1,46.4,29.56,SSW,193,13.0,20.0,75,0.00,,OVC250,0.00,VWS V14.01,2013-01-11 18:31:00,
2013-01-11 12:35:00,54.0,46.3,29.56,SE,146,13.0,26.0,75,0.00,,OVC250,0.00,VWS V14.01,2013-01-11 18:35:00,
2013-01-11 12:36:00,54.0,46.3,29.56,SE,133,8.0,21.0,75,0.00,,BKN250,0.00,VWS V14.01,2013-01-11 18:36:00,
2013-01-11 12:40:00,53.9,46.5,29.55,SSE,159,6.0,21.0,76,0.00,,OVC250,0.00,VWS V14.01,2013-01-11 18:40:00,
2013-01-11 12:41:00,53.9,46.5,29.55,SE,142,7.0,13.0,76,0.00,,BKN250,0.00,VWS V14.01,2013-01-11 18:41:00,
2013-01-11 12:45:00,53.9,46.9,29.55,SSE,152,13.0,19.0,77,0.00,,OVC250,0.00,VWS V14.01,2013-01-11 18:45:00,
2013-01-11 12:46:00,53.9,46.9,29.55,ESE,122,9.0,16.0,77,0.00,,BKN250,0.00,VWS V14.01,2013-01-11 18:46:00,
2013-01-11 12:50:00,53.9,46.9,29.54,SSE,152,15.0,18.0,77,0.00,,OVC250,0.00,VWS V14.01,2013-01-11 18:50:00,
2013-01-11 12:51:00,54.0,47.0,29.54,SSE,167,16.0,18.0,77,0.00,,BKN250,0.00,VWS V14.01,2013-01-11 18:51:00,
2013-01-11 12:55:00,54.0,47.0,29.54,SSE,162,8.0,20.0,77,0.00,,OVC250,0.00,VWS V14.01,2013-01-11 18:55:00,
2013-01-11 12:56:00,54.1,47.1,29.54,SSE,166,15.0,15.0,77,0.00,,BKN250,0.00,VWS V14.01,2013-01-11 18:56:00,
2013-01-11 13:00:00,54.2,47.2,29.55,South,172,16.0,19.0,77,0.00,,OVC250,0.00,VWS V14.01,2013-01-11 19:00:00,
2013-01-11 13:01:00,54.3,47.2,29.54,SSE,160,7.0,17.0,77,0.00,,BKN250,0.00,VWS V14.01,2013-01-11 19:01:00,
2013-01-11 13:05:00,54.5,47.1,29.54,SSW,194,13.0,20.0,76,0.00,,OVC250,0.00,VWS V14.01,2013-01-11 19:05:00,
2013-01-11 13:06:00,54.6,46.8,29.54,South,181,15.0,22.0,75,0.00,,BKN250,0.00,VWS V14.01,2013-01-11 19:06:00,
2013-01-11 13:10:00,54.8,46.7,29.54,SSE,165,14.0,22.0,74,0.00,,OVC250,0.00,VWS V14.01,2013-01-11 19:10:00,
2013-01-11 13:11:00,54.8,46.7,29.53,SSE,148,12.0,15.0,74,0.00,,BKN250,0.00,VWS V14.01,2013-01-11 19:11:00,
2013-01-11 13:15:00,54.9,46.8,29.54,SSE,158,13.0,19.0,74,0.00,,OVC250,0.00,VWS V14.01,2013-01-11 19:15:00,
2013-01-11 13:16:00,54.9,46.8,29.54,SSW,193,5.0,19.0,74,0.00,,BKN250,0.00,VWS V14.01,2013-01-11 19:16:00,
2013-01-11 13:20:00,55.0,47.2,29.54,SW,232,8.0,19.0,75,0.00,,OVC250,0.00,VWS V14.01,2013-01-11 19:20:00,
2013-01-11 13:21:00,55.0,47.2,29.54,SSE,163,8.0,17.0,75,0.00,,BKN250,0.00,VWS V14.01,2013-01-11 19:21:00,
2013-01-11 13:25:00,55.0,47.6,29.54,South,188,12.0,18.0,76,0.00,,OVC250,0.00,VWS V14.01,2013-01-11 19:25:00,
2013-01-11 13:26:00,55.0,47.6,29.54,ESE,120,14.0,18.0,76,0.00,,BKN250,0.00,VWS V14.01,2013-01-11 19:26:00,
2013-01-11 13:30:00,54.9,47.1,29.54,NW,307,8.0,19.0,75,0.00,,OVC250,0.00,VWS V14.01,2013-01-11 19:30:00,
2013-01-11 13:31:00,54.8,47.0,29.54,South,191,10.0,20.0,75,0.00,,BKN250,0.00,VWS V14.01,2013-01-11 19:31:00,
2013-01-11 13:35:00,54.8,47.4,29.54,South,191,19.0,21.0,76,0.00,,OVC250,0.00,VWS V14.01,2013-01-11 19:35:00,
2013-01-11 13:36:00,54.7,47.3,29.54,South,169,10.0,19.0,76,0.00,,OVC250,0.00,VWS V14.01,2013-01-11 19:36:00,
2013-01-11 13:40:00,54.7,47.3,29.54,SSW,198,6.0,23.0,76,0.00,,OVC250,0.00,VWS V14.01,2013-01-11 19:40:00,
2013-01-11 13:41:00,54.7,47.3,29.54,East,96,5.0,16.0,76,0.00,,OVC250,0.00,VWS V14.01,2013-01-11 19:41:00,
2013-01-11 13:45:00,54.8,47.4,29.54,South,169,15.0,19.0,76,0.00,,OVC250,0.00,VWS V14.01,2013-01-11 19:45:00,
2013-01-11 13:46:00,54.8,47.4,29.53,SE,138,5.0,16.0,76,0.00,,OVC250,0.00,VWS V14.01,2013-01-11 19:46:00,
2013-01-11 13:50:00,54.8,47.4,29.53,SE,138,8.0,16.0,76,0.00,,OVC250,0.00,VWS V14.01,2013-01-11 19:50:00,
2013-01-11 13:51:00,54.8,47.4,29.53,SSE,155,12.0,19.0,76,0.00,,OVC250,0.00,VWS V14.01,2013-01-11 19:51:00,
2013-01-11 13:55:00,54.9,47.5,29.53,SSW,198,7.0,23.0,76,0.00,,OVC250,0.00,VWS V14.01,2013-01-11 19:55:00,
2013-01-11 13:56:00,54.9,47.5,29.53,SW,222,8.0,16.0,76,0.00,,OVC250,0.00,VWS V14.01,2013-01-11 19:56:00,
2013-01-11 14:00:00,55.0,47.6,29.53,SSE,148,7.0,16.0,76,0.00,,OVC250,0.00,VWS V14.01,2013-01-11 20:00:00,
2013-01-11 14:01:00,55.1,47.7,29.53,South,174,10.0,11.0,76,0.00,,OVC250,0.00,VWS V14.01,2013-01-11 20:01:00,
2013-01-11 14:05:00,55.2,47.8,29.53,South,185,6.0,15.0,76,0.00,,OVC250,0.00,VWS V14.01,2013-01-11 20:05:00,
2013-01-11 14:06:00,55.2,47.8,29.53,SSE,167,11.0,12.0,76,0.00,,OVC250,0.00,VWS V14.01,2013-01-11 20:06:00,
2013-01-11 14:10:00,55.4,48.0,29.53,SE,134,8.0,20.0,76,0.00,,OVC250,0.00,VWS V14.01,2013-01-11 20:10:00,
2013-01-11 14:11:00,55.4,48.0,29.53,SSE,150,9.0,16.0,76,0.00,,OVC250,0.00,VWS V14.01,2013-01-11 20:11:00,
2013-01-11 14:15:00,55.5,48.1,29.53,SSE,159,8.0,16.0,76,0.00,,OVC250,0.00,VWS V14.01,2013-01-11 20:15:00,
2013-01-11 14:16:00,55.6,48.2,29.53,South,176,12.0,14.0,76,0.00,,OVC250,0.00,VWS V14.01,2013-01-11 20:16:00,
2013-01-11 14:20:00,55.7,48.3,29.53,SSW,205,8.0,14.0,76,0.00,,OVC250,0.00,VWS V14.01,2013-01-11 20:20:00,
2013-01-11 14:21:00,55.7,48.3,29.53,South,175,8.0,11.0,76,0.00,,OVC250,0.00,VWS V14.01,2013-01-11 20:21:00,
2013-01-11 14:25:00,55.9,48.5,29.53,SSW,197,11.0,15.0,76,0.00,,OVC250,0.00,VWS V14.01,2013-01-11 20:25:00,
2013-01-11 14:26:00,55.9,48.5,29.53,SSE,155,14.0,14.0,76,0.00,,OVC250,0.00,VWS V14.01,2013-01-11 20:26:00,
2013-01-11 14:30:00,56.1,48.3,29.52,East,101,9.0,22.0,75,0.00,,OVC250,0.00,VWS V14.01,2013-01-11 20:30:00,
2013-01-11 14:31:00,56.1,48.3,29.52,SSE,157,9.0,16.0,75,0.00,,OVC250,0.00,VWS V14.01,2013-01-11 20:31:00,
2013-01-11 14:35:00,56.2,48.4,29.52,SSE,159,10.0,17.0,75,0.00,,OVC250,0.00,VWS V14.01,2013-01-11 20:35:00,
2013-01-11 14:36:00,56.3,48.5,29.52,SE,145,12.0,21.0,75,0.00,,OVC250,0.00,VWS V14.01,2013-01-11 20:36:00,
2013-01-11 14:40:00,56.4,48.6,29.52,SSE,166,14.0,21.0,75,0.00,,OVC250,0.00,VWS V14.01,2013-01-11 20:40:00,
2013-01-11 14:41:00,56.5,48.3,29.52,South,173,14.0,14.0,74,0.00,,OVC250,0.00,VWS V14.01,2013-01-11 20:41:00,
2013-01-11 14:45:00,56.6,48.4,29.52,SE,135,9.0,19.0,74,0.00,,OVC250,0.00,VWS V14.01,2013-01-11 20:45:00,
2013-01-11 14:46:00,56.7,48.5,29.52,SSE,167,10.0,20.0,74,0.00,,OVC250,0.00,VWS V14.01,2013-01-11 20:46:00,
2013-01-11 14:50:00,56.9,48.3,29.52,SE,136,10.0,20.0,73,0.00,,OVC250,0.00,VWS V14.01,2013-01-11 20:50:00,
2013-01-11 14:51:00,56.9,48.3,29.52,SSE,159,10.0,11.0,73,0.00,,OVC250,0.00,VWS V14.01,2013-01-11 20:51:00,
2013-01-11 14:55:00,56.9,48.7,29.52,SE,135,8.0,18.0,74,0.00,,OVC250,0.00,VWS V14.01,2013-01-11 20:55:00,
2013-01-11 14:56:00,56.9,48.3,29.53,South,182,10.0,15.0,73,0.00,,OVC250,0.00,VWS V14.01,2013-01-11 20:56:00,
2013-01-11 15:00:00,57.0,48.4,29.53,SE,131,7.0,19.0,73,0.00,,OVC250,0.00,VWS V14.01,2013-01-11 21:00:00,
2013-01-11 15:01:00,57.0,48.4,29.53,SSW,201,10.0,17.0,73,0.00,,OVC250,0.00,VWS V14.01,2013-01-11 21:01:00,
2013-01-11 15:05:00,57.1,48.2,29.53,WSW,243,13.0,19.0,72,0.00,,OVC250,0.00,VWS V14.01,2013-01-11 21:05:00,
2013-01-11 15:06:00,57.2,48.6,29.53,SSE,152,12.0,15.0,73,0.00,,OVC250,0.00,VWS V14.01,2013-01-11 21:06:00,
2013-01-11 15:10:00,57.3,48.4,29.53,South,176,11.0,22.0,72,0.00,,OVC250,0.00,VWS V14.01,2013-01-11 21:10:00,
2013-01-11 15:11:00,57.4,48.5,29.53,SSE,163,12.0,17.0,72,0.00,,OVC250,0.00,VWS V14.01,2013-01-11 21:11:00,
2013-01-11 15:15:00,57.5,48.6,29.53,SSE,166,11.0,20.0,72,0.00,,OVC250,0.00,VWS V14.01,2013-01-11 21:15:00,
2013-01-11 15:16:00,57.5,48.6,29.53,SSE,155,10.0,20.0,72,0.00,,OVC250,0.00,VWS V14.01,2013-01-11 21:16:00,
2013-01-11 15:21:00,57.5,48.6,29.53,SSE,148,6.0,6.0,72,0.00,,OVC250,0.00,VWS V14.01,2013-01-11 21:21:00,
2013-01-11 15:26:00,57.4,48.8,29.53,SE,130,13.0,13.0,73,0.00,,OVC250,0.00,VWS V14.01,2013-01-11 21:26:00,
2013-01-11 15:31:00,57.5,48.6,29.53,SE,133,9.0,13.0,72,0.00,,OVC250,0.00,VWS V14.01,2013-01-11 21:31:00,
2013-01-11 15:36:00,57.5,48.6,29.53,East,94,6.0,12.0,72,0.00,,OVC250,0.00,VWS V14.01,2013-01-11 21:36:00,
2013-01-11 15:41:00,57.5,48.6,29.53,South,170,4.0,9.0,72,0.00,,OVC250,0.00,VWS V14.01,2013-01-11 21:41:00,
2013-01-11 15:46:00,57.5,48.6,29.53,SSE,150,12.0,12.0,72,0.00,,OVC250,0.00,VWS V14.01,2013-01-11 21:46:00,
2013-01-11 15:51:00,57.5,48.2,29.54,South,180,11.0,12.0,71,0.00,,OVC250,0.00,VWS V14.01,2013-01-11 21:51:00,
2013-01-11 15:56:00,57.5,48.2,29.54,SE,132,8.0,11.0,71,0.00,,OVC250,0.00,VWS V14.01,2013-01-11 21:56:00,
2013-01-11 16:01:00,57.7,48.4,29.53,South,189,10.0,15.0,71,0.00,,OVC250,0.00,VWS V14.01,2013-01-11 22:01:00,
2013-01-11 16:06:00,57.8,48.5,29.53,SSE,148,8.0,12.0,71,0.00,,OVC250,0.00,VWS V14.01,2013-01-11 22:06:00,
2013-01-11 16:11:00,58.1,48.8,29.53,SSW,210,4.0,11.0,71,0.00,,OVC250,0.00,VWS V14.01,2013-01-11 22:11:00,
2013-01-11 16:16:00,58.4,48.7,29.53,ESE,113,9.0,9.0,70,0.00,,OVC250,0.00,VWS V14.01,2013-01-11 22:16:00,
2013-01-11 16:21:00,58.7,48.6,29.54,SE,142,10.0,13.0,69,0.00,,OVC250,0.00,VWS V14.01,2013-01-11 22:21:00,
2013-01-11 16:26:00,58.9,48.8,29.54,SE,135,8.0,14.0,69,0.00,,OVC250,0.00,VWS V14.01,2013-01-11 22:26:00,
2013-01-11 16:31:00,59.0,48.9,29.53,SE,146,11.0,14.0,69,0.00,,OVC250,0.00,VWS V14.01,2013-01-11 22:31:00,
2013-01-11 16:36:00,59.2,49.0,29.53,SE,143,6.0,17.0,69,0.00,,BKN250,0.00,VWS V14.01,2013-01-11 22:36:00,
2013-01-11 16:41:00,59.3,49.1,29.53,SSE,166,13.0,13.0,69,0.00,,BKN250,0.00,VWS V14.01,2013-01-11 22:41:00,
2013-01-11 16:46:00,59.4,48.8,29.53,SSE,148,13.0,16.0,68,0.00,,BKN250,0.00,VWS V14.01,2013-01-11 22:46:00,
2013-01-11 16:51:00,59.5,48.9,29.53,SSE,150,7.0,12.0,68,0.00,,BKN250,0.00,VWS V14.01,2013-01-11 22:51:00,
2013-01-11 16:56:00,59.6,48.6,29.54,South,190,11.0,14.0,67,0.00,,BKN250,0.00,VWS V14.01,2013-01-11 22:56:00,
2013-01-11 17:01:00,59.6,48.6,29.54,SSE,155,9.0,14.0,67,0.00,,BKN250,0.00,VWS V14.01,2013-01-11 23:01:00,
2013-01-11 17:06:00,59.6,48.6,29.54,SSW,200,15.0,19.0,67,0.00,,BKN250,0.00,VWS V14.01,2013-01-11 23:06:00,
2013-01-11 17:11:00,59.7,48.3,29.54,WSW,243,12.0,16.0,66,0.00,,BKN250,0.00,VWS V14.01,2013-01-11 23:11:00,
2013-01-11 17:16:00,59.7,48.3,29.54,South,179,11.0,15.0,66,0.00,,BKN250,0.00,VWS V14.01,2013-01-11 23:16:00,
2013-01-11 17:21:00,59.6,48.2,29.55,SSE,160,15.0,17.0,66,0.00,,BKN250,0.00,VWS V14.01,2013-01-11 23:21:00,
2013-01-11 17:26:00,59.6,48.2,29.55,SSW,207,8.0,16.0,66,0.00,,BKN250,0.00,VWS V14.01,2013-01-11 23:26:00,
2013-01-11 17:31:00,59.6,48.2,29.55,South,190,15.0,17.0,66,0.00,,BKN250,0.00,VWS V14.01,2013-01-11 23:31:00,
2013-01-11 17:36:00,59.5,48.2,29.55,South,187,5.0,15.0,66,0.00,,BKN250,0.00,VWS V14.01,2013-01-11 23:36:00,
2013-01-11 17:41:00,59.4,48.5,29.55,SE,132,9.0,14.0,67,0.00,,BKN250,0.00,VWS V14.01,2013-01-11 23:41:00,
2013-01-11 17:46:00,59.3,48.4,29.55,ESE,122,6.0,8.0,67,0.00,,BKN250,0.00,VWS V14.01,2013-01-11 23:46:00,
2013-01-11 17:51:00,59.2,48.7,29.56,South,172,18.0,18.0,68,0.00,,BKN250,0.00,VWS V14.01,2013-01-11 23:51:00,
2013-01-11 17:56:00,59.2,48.7,29.56,South,183,9.0,16.0,68,0.00,,BKN250,0.00,VWS V14.01,2013-01-11 23:56:00,
2013-01-11 18:01:00,59.2,48.3,29.56,SSE,167,13.0,25.0,67,0.00,,BKN250,0.00,VWS V14.01,2013-01-12 00:01:00,
2013-01-11 18:06:00,59.3,48.4,29.56,SSW,195,9.0,16.0,67,0.00,,BKN250,0.00,VWS V14.01,2013-01-12 00:06:00,
2013-01-11 18:11:00,59.3,48.4,29.56,South,191,8.0,21.0,67,0.00,,BKN250,0.00,VWS V14.01,2013-01-12 00:11:00,
2013-01-11 18:15:00,59.3,48.4,29.56,South,177,16.0,16.0,67,0.00,,BKN250,0.00,VWS V14.01,2013-01-12 00:15:00,
2013-01-11 18:20:00,59.3,48.0,29.56,ESE,108,5.0,17.0,66,0.00,,BKN250,0.00,VWS V14.01,2013-01-12 00:20:00,
2013-01-11 18:25:00,59.3,48.0,29.57,SW,235,10.0,18.0,66,0.00,,BKN250,0.00,VWS V14.01,2013-01-12 00:25:00,
2013-01-11 18:30:00,59.3,48.0,29.58,South,176,14.0,16.0,66,0.00,,BKN250,0.00,VWS V14.01,2013-01-12 00:30:00,
2013-01-11 18:35:00,59.3,48.0,29.58,South,179,8.0,15.0,66,0.00,,BKN250,0.00,VWS V14.01,2013-01-12 00:35:00,
2013-01-11 18:40:00,59.1,47.8,29.59,SSW,201,17.0,17.0,66,0.00,,BKN250,0.00,VWS V14.01,2013-01-12 00:40:00,
2013-01-11 18:45:00,59.0,48.1,29.59,SSE,159,9.0,11.0,67,0.00,,BKN250,0.00,VWS V14.01,2013-01-12 00:45:00,
2013-01-11 18:50:00,58.9,48.0,29.59,SSW,207,11.0,21.0,67,0.00,,BKN250,0.00,VWS V14.01,2013-01-12 00:50:00,
2013-01-11 18:55:00,58.9,48.0,29.60,SE,141,6.0,10.0,67,0.00,,BKN250,0.00,VWS V14.01,2013-01-12 00:55:00,
2013-01-11 19:00:00,58.9,48.0,29.60,South,186,7.0,10.0,67,0.00,,BKN250,0.00,VWS V14.01,2013-01-12 01:00:00,
2013-01-11 19:05:00,58.9,48.0,29.61,WSW,250,5.0,12.0,67,0.00,,BKN250,0.00,VWS V14.01,2013-01-12 01:05:00,
2013-01-11 19:10:00,59.0,47.7,29.62,SSW,205,3.0,8.0,66,0.00,,BKN250,0.00,VWS V14.01,2013-01-12 01:10:00,
2013-01-11 19:15:00,59.0,47.7,29.62,South,173,16.0,19.0,66,0.00,,BKN250,0.00,VWS V14.01,2013-01-12 01:15:00,
2013-01-11 19:20:00,59.2,47.9,29.62,SW,225,8.0,12.0,66,0.00,,BKN250,0.00,VWS V14.01,2013-01-12 01:20:00,
2013-01-11 19:25:00,59.1,47.4,29.63,SSW,195,7.0,10.0,65,0.00,,BKN250,0.00,VWS V14.01,2013-01-12 01:25:00,
2013-01-11 19:30:00,59.1,47.4,29.63,South,188,10.0,10.0,65,0.00,,BKN250,0.00,VWS V14.01,2013-01-12 01:30:00,
2013-01-11 19:35:00,59.2,47.0,29.63,WSW,255,4.0,8.0,64,0.00,,OVC250,0.00,VWS V14.01,2013-01-12 01:35:00,
2013-01-11 19:40:00,59.0,46.8,29.64,South,169,5.0,11.0,64,0.00,,OVC250,0.00,VWS V14.01,2013-01-12 01:40:00,
2013-01-11 19:45:00,58.8,46.7,29.64,SW,235,5.0,9.0,64,0.00,,OVC250,0.00,VWS V14.01,2013-01-12 01:45:00,
2013-01-11 19:50:00,58.6,46.5,29.64,ESE,121,2.0,10.0,64,0.00,,OVC250,0.00,VWS V14.01,2013-01-12 01:50:00,
2013-01-11 19:55:00,58.4,45.9,29.65,SSE,158,6.0,11.0,63,0.00,,OVC250,0.00,VWS V14.01,2013-01-12 01:55:00,
2013-01-11 20:00:00,58.3,44.5,29.66,South,189,10.0,10.0,60,0.00,,OVC250,0.00,VWS V14.01,2013-01-12 02:00:00,
2013-01-11 20:05:00,58.5,41.9,29.65,SW,232,8.0,10.0,54,0.00,,OVC250,0.00,VWS V14.01,2013-01-12 02:05:00,
2013-01-11 20:10:00,58.7,41.1,29.66,NE,44,6.0,10.0,52,0.00,,OVC250,0.00,VWS V14.01,2013-01-12 02:10:00,
2013-01-11 20:15:00,58.5,39.9,29.66,ESE,108,2.0,9.0,50,0.00,,OVC250,0.00,VWS V14.01,2013-01-12 02:15:00,
2013-01-11 20:20:00,58.3,38.7,29.67,WSW,257,4.0,8.0,48,0.00,,OVC250,0.00,VWS V14.01,2013-01-12 02:20:00,
2013-01-11 20:25:00,58.1,38.0,29.67,SW,215,5.0,7.0,47,0.00,,OVC250,0.00,VWS V14.01,2013-01-12 02:25:00,
2013-01-11 20:30:00,57.9,36.7,29.67,WSW,248,6.0,7.0,45,0.00,,OVC250,0.00,VWS V14.01,2013-01-12 02:30:00,
2013-01-11 20:35:00,57.7,35.4,29.67,SSE,167,4.0,5.0,43,0.00,,BKN150,0.00,VWS V14.01,2013-01-12 02:35:00,
2013-01-11 20:40:00,57.5,34.0,29.68,SSW,203,6.0,9.0,41,0.00,,BKN150,0.00,VWS V14.01,2013-01-12 02:40:00,
2013-01-11 20:45:00,57.4,34.5,29.68,South,181,6.0,11.0,42,0.00,,BKN150,0.00,VWS V14.01,2013-01-12 02:45:00,
2013-01-11 20:50:00,57.2,33.1,29.69,SW,217,8.0,8.0,40,0.00,,BKN150,0.00,VWS V14.01,2013-01-12 02:50:00,
2013-01-11 20:55:00,57.1,31.1,29.69,SW,219,8.0,13.0,37,0.00,,BKN150,0.00,VWS V14.01,2013-01-12 02:55:00,
2013-01-11 21:00:00,56.9,30.2,29.69,SSW,208,13.0,13.0,36,0.00,,BKN150,0.00,VWS V14.01,2013-01-12 03:00:00,
2013-01-11 21:05:00,56.6,29.3,29.69,SW,228,5.0,6.0,35,0.00,,BKN150,0.00,VWS V14.01,2013-01-12 03:05:00,
2013-01-11 21:10:00,56.1,29.5,29.69,WSW,250,6.0,8.0,36,0.00,,BKN150,0.00,VWS V14.01,2013-01-12 03:10:00,
2013-01-11 21:15:00,55.6,27.7,29.70,SW,218,6.0,9.0,34,0.00,,BKN150,0.00,VWS V14.01,2013-01-12 03:15:00,
2013-01-11 21:20:00,55.3,28.8,29.70,SW,236,7.0,11.0,36,0.00,,BKN150,0.00,VWS V14.01,2013-01-12 03:20:00,
2013-01-11 21:25:00,54.7,29.0,29.70,WSW,247,10.0,11.0,37,0.00,,BKN150,0.00,VWS V14.01,2013-01-12 03:25:00,
2013-01-11 21:30:00,54.3,27.9,29.71,SW,214,6.0,8.0,36,0.00,,BKN150,0.00,VWS V14.01,2013-01-12 03:30:00,
2013-01-11 21:35:00,53.8,28.8,29.72,WSW,248,3.0,5.0,38,0.00,,BKN250,0.00,VWS V14.01,2013-01-12 03:35:00,
2013-01-11 21:40:00,53.2,24.9,29.73,SW,231,13.0,19.0,33,0.00,,BKN250,0.00,VWS V14.01,2013-01-12 03:40:00,
2013-01-11 21:45:00,53.1,24.0,29.73,SW,235,6.0,12.0,32,0.00,,BKN250,0.00,VWS V14.01,2013-01-12 03:45:00,
2013-01-11 21:50:00,52.6,23.6,29.73,WSW,238,8.0,9.0,32,0.00,,BKN250,0.00,VWS V14.01,2013-01-12 03:50:00,
2013-01-11 21:55:00,52.2,24.0,29.74,West,267,6.0,8.0,33,0.00,,BKN250,0.00,VWS V14.01,2013-01-12 03:55:00,
2013-01-11 22:00:00,51.5,24.1,29.74,SW,232,6.0,8.0,34,0.00,,BKN250,0.00,VWS V14.01,2013-01-12 04:00:00,
2013-01-11 22:05:00,50.9,24.9,29.75,SSW,205,3.0,4.0,36,0.00,,BKN250,0.00,VWS V14.01,2013-01-12 04:05:00,
2013-01-11 22:10:00,50.3,25.0,29.75,WNW,288,1.0,4.0,37,0.00,,BKN250,0.00,VWS V14.01,2013-01-12 04:10:00,
2013-01-11 22:15:00,49.6,25.7,29.75,NNE,32,2.0,6.0,39,0.00,,BKN250,0.00,VWS V14.01,2013-01-12 04:15:00,
2013-01-11 22:20:00,49.1,25.8,29.76,NNW,330,2.0,4.0,40,0.00,,BKN250,0.00,VWS V14.01,2013-01-12 04:20:00,
2013-01-11 22:25:00,48.5,25.9,29.76,NW,312,9.0,9.0,41,0.00,,BKN250,0.00,VWS V14.01,2013-01-12 04:25:00,
2013-01-11 22:30:00,47.9,27.0,29.77,NW,314,4.0,5.0,44,0.00,,BKN250,0.00,VWS V14.01,2013-01-12 04:30:00,
2013-01-11 22:35:00,47.2,29.0,29.78,West,266,6.0,7.0,49,0.00,,BKN250,0.00,VWS V14.01,2013-01-12 04:35:00,
2013-01-11 22:40:00,46.5,32.1,29.78,NW,324,4.0,9.0,57,0.00,,BKN250,0.00,VWS V14.01,2013-01-12 04:40:00,
2013-01-11 22:45:00,45.5,32.4,29.79,NNE,23,5.0,5.0,60,0.00,,BKN250,0.00,VWS V14.01,2013-01-12 04:45:00,
2013-01-11 22:50:00,44.8,32.6,29.79,WNW,300,4.0,5.0,62,0.00,,BKN250,0.00,VWS V14.01,2013-01-12 04:50:00,
2013-01-11 22:55:00,44.2,32.8,29.80,WNW,298,7.0,7.0,64,0.00,,BKN250,0.00,VWS V14.01,2013-01-12 04:55:00,
2013-01-11 23:00:00,43.8,33.2,29.80,WNW,285,1.0,7.0,66,0.00,,BKN250,0.00,VWS V14.01,2013-01-12 05:00:00,
2013-01-11 23:01:00,43.7,33.1,29.80,North,4,1.0,2.0,66,0.00,,BKN250,0.00,VWS V14.01,2013-01-12 05:01:00,
2013-01-11 23:03:00,43.5,33.3,29.80,WNW,295,2.0,4.0,67,0.00,,BKN250,0.00,VWS V14.01,2013-01-12 05:03:00,
2013-01-11 23:08:00,43.1,33.6,29.80,NNW,338,1.0,4.0,69,0.00,,BKN250,0.00,VWS V14.01,2013-01-12 05:08:00,
2013-01-11 23:13:00,42.7,33.6,29.80,WNW,292,1.0,5.0,70,0.00,,BKN250,0.00,VWS V14.01,2013-01-12 05:13:00,
2013-01-11 23:18:00,42.3,33.9,29.80,WNW,302,2.0,5.0,72,0.00,,BKN250,0.00,VWS V14.01,2013-01-12 05:18:00,
2013-01-11 23:23:00,42.0,34.0,29.81,West,266,1.0,3.0,73,0.00,,BKN250,0.00,VWS V14.01,2013-01-12 05:23:00,
2013-01-11 23:28:00,41.6,33.9,29.81,NW,316,6.0,7.0,74,0.00,,BKN250,0.00,VWS V14.01,2013-01-12 05:28:00,
2013-01-11 23:33:00,41.4,33.8,29.81,WNW,300,3.0,7.0,74,0.00,,SCT250,0.00,VWS V14.01,2013-01-12 05:33:00,
2013-01-11 23:38:00,41.2,33.9,29.81,NW,309,3.0,8.0,75,0.00,,SCT250,0.00,VWS V14.01,2013-01-12 05:38:00,
2013-01-11 23:43:00,40.9,33.9,29.82,WNW,295,1.0,5.0,76,0.00,,SCT250,0.00,VWS V14.01,2013-01-12 05:43:00,
2013-01-11 23:48:00,40.7,34.1,29.82,NW,322,1.0,5.0,77,0.00,,SCT250,0.00,VWS V14.01,2013-01-12 05:48:00,
2013-01-11 23:53:00,40.4,34.1,29.83,NW,324,1.0,6.0,78,0.00,,SCT250,0.00,VWS V14.01,2013-01-12 05:53:00,
2013-01-11 23:58:00,40.0,34.0,29.83,NNE,32,2.0,5.0,79,0.00,,SCT250,0.00,VWS V14.01,2013-01-12 05:58:00,